Powrót do katalogu

OPS 3367 B

AktywnyMilitariaSSO
NORAD 735·PAYLOAD·🇺🇸 United States

Wystrzelony Jan 19, 1964 z Vandenberg Space Force Base

Loading…

Następne Przeloty (najbliższe 24 godziny)

TLE

ŚwieżeSource: Space-Track

Epoka: Sep 14, 2026, 13:29 UTC

1 00735U 64002C   26257.56212314  .00000052  00000-0  39498-4 0  9997
2 00735  98.9812 184.8922 0017309  50.0662 310.2036 14.28597822259477

Śledź OPS 3367 B w czasie rzeczywistym z AllMySat

Download on the App Store